Home > Weather > Indianapolis > Past weeks

Flag for U.S.A. Weather for the Past 2 Weeks in Indianapolis, Indiana, U.S.A.

Now
20 °F

Passing clouds.


Feels Like: 4 °F
Forecast: 6 / 15 °F
Wind: 20 mph from Northwest

Location: Indianapolis International Airport

Current Time: Feb 12, 2016 at 9:56:38 PM

Latest Report: Feb 12, 2016 at 8:54 PM


Visibility: 10 mi

Pressure: 30.30 "Hg

Humidity: 55%

Dew point: 6 °F

Location of IndianapolisLocation

Historic Weather in Indianapolis — Graph

°F

Indianapolis Temperature Yesterday

Maximum temperature yesterday: 26 °F (at 4:54 PM)
Minimum temperature yesterday: 10 °F (at 6:54 AM)
Average temperature yesterday: 18 °F

High & Low Weather Summary for the Past Weeks

 TemperatureHumidityPressure
High61 °F (Feb 2, 10:54 PM)92% (Feb 1, 3:54 AM)30.40 "Hg (Feb 1, 3:54 AM)
Low10 °F (Feb 11, 6:54 AM)31% (Feb 7, 1:54 PM)29.48 "Hg (Feb 3, 12:54 AM)
Average33 °F69%29.99 "Hg
* Reported Jan 28 7:54 PM — Feb 12 7:54 PM, Indianapolis, Weather by CustomWeather, © 2016

Note: Actual official high and low records may vary slightly from our data, if they occured in-between our weather recording intervals... More about our weather records

Advertising

Indianapolis Weather History for the Previous 24 Hours

 ConditionsComfort  
Time TempWeatherWind HumidityBarometerVisibility
7:54 PM
Fri, Feb 12
23 °FLight snow. Passing clouds.21 mph57%30.27 "Hg7 mi
6:54 PM23 °FPassing clouds.17 mph55%30.24 "Hg10 mi
5:54 PM23 °FPartly sunny.23 mph57%30.21 "Hg10 mi
4:54 PM25 °FLight snow. Partly sunny.25 mph72%30.18 "Hg3 mi
3:54 PM25 °FLight snow. Mostly cloudy.15 mph78%30.15 "Hg2 mi
2:54 PM26 °FLight snow. Overcast.18 mph71%30.14 "Hg4 mi
1:54 PM25 °FLight snow. Overcast.18 mph69%30.16 "Hg9 mi
12:54 PM26 °FLight snow. Overcast.17 mph60%30.17 "Hg9 mi
11:54 AM25 °FMostly cloudy.14 mph58%30.19 "Hg10 mi
10:54 AM25 °FMostly cloudy.12 mph55%30.18 "Hg10 mi
9:54 AM24 °FMostly cloudy.12 mph57%30.19 "Hg10 mi
8:54 AM21 °FCloudy.6 mph62%30.20 "Hg10 mi
7:54 AM20 °FMostly cloudy.3 mph65%30.20 "Hg10 mi
6:54 AM20 °FOvercast.3 mph60%30.19 "Hg10 mi
5:54 AM20 °FMostly cloudy.3 mph60%30.20 "Hg10 mi
4:54 AM21 °FPassing clouds.No wind60%30.21 "Hg10 mi
3:54 AM20 °FOvercast.3 mph65%30.22 "Hg10 mi
2:54 AM20 °FPartly cloudy.No wind62%30.24 "Hg10 mi
1:54 AM21 °FOvercast.No wind65%30.26 "Hg10 mi
12:54 AM19 °FPartly cloudy.3 mph65%30.27 "Hg10 mi
11:54 PM
Thu, Feb 11
20 °FPassing clouds.3 mph65%30.29 "Hg10 mi
10:54 PM20 °FPassing clouds.5 mph62%30.30 "Hg10 mi
9:54 PM21 °FPassing clouds.No wind62%30.31 "Hg10 mi
Weather by CustomWeather, © 2016

See weather overviewHow to use our weather pages